Creek Data

    Home     View Charts     View Raw Data     Messages

ID Distance Battery Voltage Battery Current Internal Temp Internal Humidity External Temp Solar Input rssi snr Time Stamp Record
63943 14.6 3.85 -5 43 51 43 0 -72 8 01/20/2026 06:15 PM 46691
63942 14.6 3.64 -5 44 51 45 0 -73 9 01/20/2026 06:00 PM 46690
63941 14.6 3.68 -5 45 51 45 0 -73 9 01/20/2026 05:45 PM 46689
63940 14.6 3.67 -5 46 52 46 0.8 -73 9 01/20/2026 05:30 PM 46688
63939 14.6 3.67 -6 47 51 47 3.4 -73 9 01/20/2026 05:15 PM 46687
63938 14.6 3.67 0 48 51 48 4.5 -72 9 01/20/2026 05:00 PM 46686
63937 14.6 3.70 0 49 51 48 4.5 -72 8 01/20/2026 04:45 PM 46685
63936 14.6 3.95 9 50 51 49 4.5 -72 8 01/20/2026 04:30 PM 46684
63935 14.6 3.84 14 51 51 50 4.5 -73 9 01/20/2026 04:15 PM 46683
63934 14.6 3.85 0 51 51 50 4.5 -73 8 01/20/2026 04:00 PM 46682
63933 14.6 3.82 0 52 50 50 5.1 -72 8 01/20/2026 03:45 PM 46681
63932 14.6 3.82 0 53 50 51 5.1 -73 8 01/20/2026 03:30 PM 46680
63931 14.6 3.82 0 54 49 52 5.1 -72 8 01/20/2026 03:15 PM 46679
63930 14.6 3.82 0 54 49 51 5.1 -72 7 01/20/2026 03:00 PM 46678
63929 14.6 3.82 0 53 50 50 5.1 -72 8 01/20/2026 02:45 PM 46677
63928 14.6 3.94 0 53 50 49 5.1 -73 8 01/20/2026 02:30 PM 46676
63927 14.6 3.82 0 55 50 51 5.1 -73 8 01/20/2026 02:15 PM 46675
63926 14.6 3.83 0 55 49 49 5.1 -72 8 01/20/2026 02:00 PM 46674
63925 14.7 3.93 0 57 47 50 5.1 -72 8 01/20/2026 01:45 PM 46673
63924 14.7 3.83 0 56 48 50 5.1 -73 8 01/20/2026 01:30 PM 46672
63923 14.7 3.96 0 55 48 50 5.1 -73 8 01/20/2026 01:15 PM 46671
63922 14.7 4.09 0 54 48 48 5.1 -72 8 01/20/2026 01:00 PM 46670
63921 14.6 3.83 0 54 48 50 5.1 -72 7 01/20/2026 12:45 PM 46669
63920 14.7 3.83 0 53 48 48 5.1 -72 7 01/20/2026 12:30 PM 46668
63919 14.7 4.03 0 53 48 48 5.1 -73 9 01/20/2026 12:15 PM 46667